This is the latest recevied weather packets stored in our database for station/object DK8HC-WX. If no packets are shown the sender has not sent any weather packets the latest 10 day(s).
| Time | Temp. | Humidity | Pressure | Rain* | Wind** | Luminosity | Snow |
|---|---|---|---|---|---|---|---|
| 1777777904 | 12.22° C | 100% | 1017.1 hPa | - | - | - | - |
| 1777777304 | 12.22° C | 100% | 1017 hPa | - | - | - | - |
| 1777776704 | 12.78° C | 100% | 1016.7 hPa | - | - | - | - |
| 1777776103 | 12.78° C | 100% | 1016.6 hPa | - | - | - | - |
| 1777775504 | 13.33° C | 100% | 1016.7 hPa | - | - | - | - |
| 1777774904 | 13.33° C | 100% | 1016.7 hPa | - | - | - | - |
| 1777774303 | 13.33° C | 100% | 1016.6 hPa | - | - | - | - |
| 1777773703 | 13.33° C | 100% | 1016.3 hPa | - | - | - | - |
| 1777773103 | 13.33° C | 100% | 1016 hPa | - | - | - | - |
| 1777772503 | 13.33° C | 100% | 1015.9 hPa | - | - | - | - |
| 1777771904 | 13.33° C | 100% | 1015.7 hPa | - | - | - | - |
| 1777771303 | 13.33° C | 100% | 1015.5 hPa | - | - | - | - |
| 1777770703 | 13.89° C | 100% | 1015.3 hPa | - | - | - | - |
| 1777770103 | 13.89° C | 100% | 1015 hPa | - | - | - | - |
| 1777769503 | 14.44° C | 100% | 1015 hPa | - | - | - | - |
| 1777768903 | 15° C | 100% | 1014.8 hPa | - | - | - | - |
| 1777768303 | 16.11° C | 100% | 1014.9 hPa | - | - | - | - |
| 1777767703 | 16.11° C | 100% | 1014.9 hPa | - | - | - | - |
| 1777767103 | 16.67° C | 100% | 1015 hPa | - | - | - | - |
| 1777766503 | 16.11° C | 100% | 1015.4 hPa | - | - | - | - |
| 1777765903 | 16.11° C | 100% | 1015.5 hPa | - | - | - | - |
| 1777765303 | 16.11° C | 100% | 1015.9 hPa | - | - | - | - |
| 1777764703 | 16.11° C | 100% | 1016 hPa | - | - | - | - |
| 1777764103 | 16.67° C | 100% | 1015.9 hPa | - | - | - | - |
| 1777763503 | 17.22° C | 100% | 1015.9 hPa | - | - | - | - |
* Rain since midnight (hover to see other rain measurements)
** Current wind speed in m/s (hover to see current wind gust speed)